Search for airport 
image banner adimage banner adimage banner ad
image banner ad

EDYW - Wk Oss

Located in , Germany

ICAO - , IATA -

Data provided by Airmate  

General information

Coordinates: N54°50'4" E14°4'27"
Elevation is 115 feet MSL.
 
View others Airports in Mecklenburg-Vorpommern

Operational data

Special qualification required
Current time UTC:
Current local time:
Weather at : EKRN - Bornholm/Roenne ( 51 km )
METAR: EKRN 060020Z AUTO 26023KT 9999 -RA OVC015/// 06/05 Q0995
TAF: TAF AMD EKRN 051825Z 0518/0521 22020KT 9999 BKN020 TEMPO 0518/0521 24025G38KT SHRA BKN008 BKN015CB
View NOTAMs / SUP AIP / TFR affecting this airport [VIEW]
Communications frequencies: [VIEW]

Runways:

Airport contact information

Address: Germany

Satellite view of EDYW